Malmstrom AFB, MT

7:07 PM MDT on April 25, 2017 (GMT -0600)
Malmstrom AFB

Weather History for KGFA - October, 2013

Change the Weather History Date:

Thursday, October 10, 2013

  Actual Average (KGTF) Record (KGTF)
Temperature  
Mean Temperature 46 °F -  
Max Temperature 59 °F 61 °F 86 °F (1934)
Min Temperature 33 °F 36 °F 4 °F (2009)
Degree Days  
Heating Degree Days 19    
Moisture  
Dew Point 28 °F    
Average Humidity 55    
Maximum Humidity 85    
Minimum Humidity 20    
Precipitation  
Precipitation 0.00 in - - ()
Sea Level Pressure  
Sea Level Pressure 29.87 in    
Wind  
Wind Speed 6 mph (WSW)    
Max Wind Speed 13 mph    
Max Gust Speed 18 mph    
Visibility 10 miles    
Events      
Averages and records for this station are not official NWS values.
T = Trace of Precipitation, MM = Missing Value Source: NWS Daily Summary

Daily Weather History Graph

Daily Weather History Graph

Search for Another Location

Airport or City:

Trip Planner

Search our weather history database for the weather conditions in past years. The results will help you decide how hot, cold, wet, or windy it might be!

Date:

Astronomy

Oct. 10, 2013 Rise Set
Actual Time 7:36 AM MDT 6:45 PM MDT
Civil Twilight 7:05 AM MDT 7:16 PM MDT
Nautical Twilight 6:30 AM MDT 7:51 PM MDT
Astronomical Twilight 5:54 AM MDT 8:27 PM MDT
Moon 1:47 PM MDT (10/10) 11:12 PM MDT (10/10)
Length of Visible Light 12h 10m
Length of Day
11h 08m
Waxing Crescent, 36% of the Moon is Illuminated
Oct 10
Waxing Crescent
Oct 11
First Quarter
Oct 18
Full
Oct 26
Last Quarter
Nov 3
New

Hourly Weather History & Observations

Time (MDT) Temp. Windchill Dew Point Humidity Pressure Visibility Wind Dir Wind Speed Gust Speed Precip Events Conditions
12:56 AM 33.1 °F 28.7 °F 28.9 °F 85% 29.91 in 10.0 mi SSE 4.6 mph - N/A   Clear
1:56 AM 36.0 °F - 30.0 °F 79% 29.89 in 10.0 mi Calm Calm - N/A   Clear
2:56 AM 39.9 °F 34.5 °F 32.0 °F 73% 29.86 in 10.0 mi SW 8.1 mph - N/A   Clear
3:56 AM 33.1 °F 30.0 °F 28.9 °F 85% 29.86 in 10.0 mi SSW 3.5 mph - N/A   Clear
4:56 AM 37.9 °F 33.5 °F 30.0 °F 73% 29.83 in 10.0 mi WSW 5.8 mph - N/A   Clear
5:56 AM 37.9 °F 34.4 °F 30.9 °F 76% 29.83 in 10.0 mi WSW 4.6 mph - N/A   Clear
6:56 AM 37.0 °F 31.0 °F 30.0 °F 76% 29.83 in 10.0 mi West 8.1 mph - N/A   Clear
7:56 AM 35.1 °F - 28.9 °F 78% 29.85 in 10.0 mi Calm Calm - N/A   Clear
8:56 AM 41.0 °F 35.8 °F 30.9 °F 67% 29.86 in 10.0 mi WSW 8.1 mph - N/A   Clear
9:56 AM 46.0 °F 42.5 °F 32.0 °F 58% 29.86 in 10.0 mi WSW 6.9 mph - N/A   Clear
10:56 AM 50.0 °F - 32.0 °F 50% 29.86 in 10.0 mi WSW 6.9 mph - N/A   Clear
11:56 AM 53.1 °F - 27.0 °F 37% 29.85 in 10.0 mi West 5.8 mph - N/A   Clear
12:56 PM 55.9 °F - 25.0 °F 30% 29.85 in 10.0 mi WSW 10.4 mph - N/A   Clear
1:56 PM 57.0 °F - 21.0 °F 25% 29.83 in 10.0 mi West 11.5 mph - N/A   Clear
2:56 PM 59.0 °F - 18.0 °F 20% 29.81 in 10.0 mi WSW 10.4 mph 18.4 mph N/A   Clear
3:56 PM 57.9 °F - 21.0 °F 24% 29.83 in 10.0 mi West 10.4 mph - N/A   Clear
4:56 PM 55.9 °F - 21.9 °F 27% 29.83 in 10.0 mi West 6.9 mph - N/A   Clear
5:56 PM 51.1 °F - 28.0 °F 41% 29.87 in 10.0 mi NW 12.7 mph - N/A   Clear
6:56 PM 48.0 °F - 28.9 °F 48% 29.90 in 10.0 mi NW 6.9 mph - N/A   Clear
7:56 PM 46.9 °F - 28.9 °F 50% 29.92 in 10.0 mi North 3.5 mph - N/A   Overcast
8:56 PM 45.0 °F 42.6 °F 30.0 °F 56% 29.93 in 10.0 mi SE 4.6 mph - N/A   Overcast
9:56 PM 45.0 °F 41.8 °F 30.0 °F 56% 29.92 in 10.0 mi SE 5.8 mph - N/A   Overcast
10:56 PM 45.0 °F 41.8 °F 30.0 °F 56% 29.92 in 10.0 mi SSE 5.8 mph - N/A   Overcast
11:56 PM 45.0 °F 41.8 °F 30.9 °F 58% 29.92 in 10.0 mi SSW 5.8 mph - N/A   Overcast